Regional Weather Roundup
Issued by NWS

Home | Current Version | Previous Version | Graphics & Text | Print | Product List | Glossary On
Versions: 1 2 3 4 5 6 7 8 9 10 11 12 13 14 15 16 17 18 19 20 21 22 23 24 25 26 27 28 29 30 31 32 33 34 35 36 37 38 39 40 41 42 43 44 45 46 47 48 49 50
000
ASUS43 KIND 131259
RWRIN

WEATHER ROUNDUP FOR INDIANA
NATIONAL WEATHER SERVICE INDIANAPOLIS IN
900 AM EDT SUN JUL 13 2014

NOTE: "FAIR" INDICATES FEW OR NO CLOUDS BELOW 12,000 FEET WITH NO
SIGNIFICANT WEATHER AND/OR OBSTRUCTIONS TO VISIBILITY.

* - STATION DOES NOT REPORT WEATHER SUCH AS PRECIPITATION OR FOG.

+ - STATION NOT QUALITY CONTROLLED BY THE NATIONAL WEATHER SERVICE.
    USE DATA WITH CAUTION...ESPECIALLY DEWPOINT AND RELATIVE
    HUMIDITY OBSERVATIONS.

INZ001>003-010>013-019-020-131400-
NORTHWEST INDIANA

CITY           SKY/WX    TMP DP  RH WIND       PRES   REMARKS
GARY /AIRPORT/ PTSUNNY   73  70  88 W8        29.94R
VALPARAISO     CLOUDY    72  68  87 W10       29.94R

$$

LMZ046-743>745-131400-
SOUTHERN LAKE MICHIGAN

STATION/POSITION TIME  TEMP WIND        PRES
                       AIR  DIR/SP/G
                 (UTC) (F)  (DEG/KT/KT) (MB)
MICHIGAN CITY    1200   70  240/ 12/ 14   N/A

$$

INZ004-005-014>016-021>024-131400-
NORTH CENTRAL INDIANA

CITY           SKY/WX    TMP DP  RH WIND       PRES   REMARKS
GOSHEN         CLOUDY    74  69  85 NW12      29.92R
PERU/GRISSOM   CLOUDY    73  73 100 W13       29.94S
SOUTH BEND     CLOUDY    71  67  87 NW9       29.94R

$$

INZ006>009-017-018-025>027-131400-
NORTHEAST INDIANA

CITY           SKY/WX    TMP DP  RH WIND       PRES   REMARKS
ANGOLA *+      CLOUDY    72  64  78 W9        29.91R
FORT WAYNE     CLOUDY    74  69  85 W15       29.93R

$$

INZ028-029-035-036-043>045-051>053-131400-
WEST CENTRAL INDIANA

CITY           SKY/WX    TMP DP  RH WIND       PRES   REMARKS
GREENCASTLE +  CLOUDY    73  72  94 S6        29.97F
LAFAYETTE      CLOUDY    72  70  93 W9        29.93F
TERRE HAUTE    CLOUDY    77  73  87 SW6       29.97F

$$

INZ030>032-037>040-046>048-054>057-064-065-131400-
CENTRAL INDIANA

CITY           SKY/WX    TMP DP  RH WIND       PRES   REMARKS
COLUMBUS       PTSUNNY   77  73  88 SW9       29.99F
INDIANAPOLIS   CLOUDY    77  72  84 SW13      29.96F
-EAGLE CREEK   CLOUDY    77  70  79 W7        29.96S
KOKOMO *+      CLOUDY    73  70  88 W12       29.94S
MT COMFORT *+  CLOUDY    79  79 100 W12G17    29.97S
SHELBYVILLE    CLOUDY    80  72  76 SW12      29.97F

$$

INZ033-034-041-042-049-050-058-059-131400-
EAST CENTRAL INDIANA

CITY           SKY/WX    TMP DP  RH WIND       PRES   REMARKS
MUNCIE         LGT RAIN  74  69  85 W12G20    29.96R

$$

INZ060-061-067>069-081>083-085>088-131400-
SOUTHWEST INDIANA

CITY           SKY/WX    TMP DP  RH WIND       PRES   REMARKS
EVANSVILLE     MOSUNNY   78  72  81 SW8       30.03R
HUNTINGBURG *+ PTSUNNY   79  70  73 SW8       30.03S

$$

INZ062-063-066-070>080-084-089>092-131400-
SOUTH CENTRAL AND SOUTHEAST INDIANA

CITY           SKY/WX    TMP DP  RH WIND       PRES   REMARKS
BLOOMINGTON    PTSUNNY   78  72  81 W10       30.01S
SEYMOUR +      PTSUNNY   77  59  53 W9        30.01

$$



USA.gov is the U.S. government's official web portal to all federal, state and local government web resources and services.